Regional Weather Roundup
Issued by NWS

Home | Current Version | Previous Version | Graphics & Text | Print | Product List | Glossary On
Versions: 1 2 3 4 5 6 7 8 9 10 11 12 13 14 15 16 17 18 19 20 21 22 23 24 25 26 27 28 29 30 31 32 33 34 35 36 37 38 39 40 41 42 43 44 45 46 47 48 49 50
000
ASUS45 KTFX 061210
RWRMT
MONTANA REGIONAL WEATHER ROUNDUP
NATIONAL WEATHER SERVICE GREAT FALLS MT
500 AM MST SAT FEB 06 2016

NOTE: "FAIR" INDICATES FEW OR NO CLOUDS BELOW 12000 FEET WITH NO
SIGNIFICANT WEATHER AND/OR OBSTRUCTIONS TO VISIBILITY.

MTZ001>007-043-061300-
WEST OF THE DIVIDE

CITY           SKY/WX    TMP DP  RH WIND       PRES   REMARKS
KALISPELL      CLOUDY    38  35  89 SW15      29.98R WCI  29
MISSOULA       CLOUDY    42  27  55 CALM      30.07F
BUTTE          CLOUDY    34  16  47 SW10      30.13F WCI  26
MULLAN PASS    LGT SNOW  25  22  88 W15G39    30.02R FOG     WCI  13
ANACONDA         N/A     36  19  51 S23G31    30.08F WCI  24
DEER LODGE       N/A     36  21  55 S12G24    30.05F WCI  27
HAMILTON         N/A     45  23  42 S10       30.10F
LIBBY            N/A     43  23  45 SW5       30.04
PLAINS           N/A     40  32  73 SW7       30.10R
THOMPSON FALLS   N/A     38  35  89 W8        30.13R
$$

MTZ008-052>055-061300-
SOUTHWEST MONTANA

CITY           SKY/WX    TMP DP  RH WIND       PRES   REMARKS
BOZEMAN        PTCLDY    22  15  75 NE5       30.13F
DILLON         CLOUDY    24  16  71 W10       30.22R WCI  14
ENNIS          PTCLDY    30  19  64 S36G43    30.25F WCI  14
THREE FORKS      N/A     35   3  26 SW30      30.09F WCI  21
TWIN BRIDGES     N/A     30  15  53 S16       30.17S WCI  19
$$

MTZ009-010-012-014-046-048-049-054-061300-
EAST SLOPES AND CENTRAL MONTANA

CITY           SKY/WX    TMP DP  RH WIND       PRES   REMARKS
CUT BANK       PTCLDY    41  26  55 W38G45    29.76F
GREAT FALLS    CLOUDY    42  20  41 SW26G32   29.89F
MALMSTROM AFB  CLOUDY    40  22  48 S21       29.90F
HELENA         CLOUDY    24  18  77 NW13      30.02F WCI  12
CHOTEAU          N/A     45  23  42 SW22G32   29.85S
CONRAD           N/A     45  29  53 S14       29.85F
$$

MTZ011-013-016-021-045-047-050-051-061300-
NORTH CENTRAL MONTANA

CITY           SKY/WX    TMP DP  RH WIND       PRES   REMARKS
HAVRE          CLOUDY    40  27  59 SW17      29.79F
LEWISTOWN      CLOUDY    42  24  49 SW22      29.92F
N BAR RANCH      N/A     45  18  33 W16       29.91F
CHINOOK          N/A     48  21  34 W17G24    29.77F
$$

MTZ017>020-022>027-061-062-061300-
NORTHEAST MONTANA

CITY           SKY/WX    TMP DP  RH WIND       PRES   REMARKS
GLASGOW        CLOUDY    38  26  62 W3        29.81F
JORDAN           N/A     39  27  62 SW18      29.85F WCI  30
SIDNEY         CLOUDY    34  25  69 SW12      29.83F WCI  25
WOLF POINT     CLOUDY    35  27  72 SW7       29.81F WCI  29
PLENTYWOOD       N/A     39  27  60 W16       29.74F WCI  30
POPLAR           N/A     37  27  65 S5        29.81F
SCOBEY           N/A     38  20  48 SW14      29.74F WCI  30
$$

MTZ028>42-056>058-061300-
SOUTHCENTRAL AND SOUTHEAST MONTANA

CITY           SKY/WX    TMP DP  RH WIND       PRES   REMARKS
BAKER          CLOUDY    34  18  52 W15       29.93S WCI  24
BILLINGS       CLOUDY    39  14  36 SW24      30.00F WCI  28
LIVINGSTON     CLOUDY    36  19  50 SW40G52   30.05S WCI  21
MILES CITY     CLOUDY    37  21  52 W8        29.94S WCI  31
EKALAKA          N/A     34  14  43 SW9       29.93F WCI  27
FORSYTH          N/A     43  18  36 SW12G17   29.95S
LAUREL           N/A     38  13  36 SW12      30.00F WCI  30
ROUNDUP          N/A     42  17  36 SW14      29.88F
$$

REGIONAL REPORTS...DAKOTAS

CITY           SKY/WX    TMP DP  RH WIND       PRES   REMARKS
WILLISTON      CLOUDY    34  26  72 SW8       29.79F WCI  27
MINOT          CLOUDY    37  23  56 SW10      29.75F WCI  30
DICKINSON      CLOUDY    33  21  61 W14       29.85S WCI  23
BEACH            N/A     36  19  51 SW16G22   29.91F WCI  26
CROSBY           N/A     34  30  86 SW18      29.74F WCI  23
TIOGA            N/A     32  30  93 W14       29.80F WCI  22
WATFORD CITY     N/A     32  25  74 SW12G17   29.81F WCI  23
BISMARCK       CLOUDY    34  24  67 SW6       29.87F WCI  29
GRAND FORKS    CLEAR     20  16  84 S9        29.89F WCI   9
FARGO          CLEAR     23  17  78 S13       29.93F WCI  11
BUFFALO SD       N/A     32  19  58 W14       29.88F WCI  22
RAPID CITY     CLOUDY    25  16  68 CALM      30.02F
$$

REGIONAL REPORTS...WYOMING/IDAHO/WASHINGTON

CITY           SKY/WX    TMP DP  RH WIND       PRES   REMARKS
GILLETTE       CLOUDY    31  18  58 SW21      30.04S WCI  18
SHERIDAN       CLOUDY    29  17  61 S5        30.01F
BUFFALO WY     CLOUDY    30  17  58 CALM      30.02F
CODY           CLOUDY    39  16  38 W17G30    30.12F WCI  30
YELLOWSTONE LA   N/A     21  17  84 VRB5      30.32S
IDAHO FALLS    CLOUDY    13  10  88 N8        30.45R WCI   2
SALMON         CLOUDY    16  12  86 NE5       30.33F
BOISE          CLOUDY    33  29  85 CALM      30.44R
SPOKANE        PTCLDY    37  29  72 SW24G30   30.14R WCI  26
$$

REGIONAL REPORTS...ALBERTA

CITY           SKY/WX    TMP DP  RH WIND       PRES   REMARKS
EDMONTON       CLOUDY    37  25  60 W9        29.43R WCI  31
CALGARY        PTCLDY    41  23  48 SW13      29.54F
LETHBRIDGE     CLEAR     43  30  61 SW30G37   29.70R
MEDICINE HAT   MOCLDY    37  30  75 SW16      29.67F WCI  28
WATERTON GATE    N/A     39  19  45 SW24G43     N/A  WCI  28
ONEFOUR          N/A     45  25  45 W17G23      N/A
$$

REGIONAL REPORTS...SASKATCHEWAN

CITY           SKY/WX    TMP DP  RH WIND       PRES   REMARKS
SWIFT CURRENT  CLOUDY    45  25  45 W24G30    29.59F
REGINA         CLOUDY    36  28  75 SW18      29.60F WCI  25
SASKATOON      CLOUDY    36  30  80 SW13      29.50F WCI  27
VAL MARIE        N/A     41  25  52 S12         N/A
ROCKGLEN         N/A     37  28  70 W21G28      N/A  WCI  27
ASSINIBOIA       N/A     39  27  60 W15         N/A  WCI  31
$$



USA.gov is the U.S. government's official web portal to all federal, state and local government web resources and services.